Date String (YYYY-MM-DD hh:mm:ss) UTC,Instrument flags,Ambient pressure (hPa),Sample flow (lpm),Bypass flow (lpm),Sample temperature (°C),Ambient temperature (°C),ASC tube jacket temperature (°C),LED temperature (°C),Box temperature (°C),Sample RH (%),Span deviation,Mass concentration (μg/m³),Mass concentration (μg/m³),Mass concentration (μg/m³)
DateTimeUTC,F1_M11,P_M11,Q1_M11,Q2_M11,T1_M11,T2_M11,T3_M11,T4_M11,T5_M11,U1_M11,ZSPAN_M11,X0_M11,X2_M11,X1_M11
2022-05-21 09:00:00,,0828.8,5.00,0.00,22.8,21.8,00.0,31.7,24.7,19.5,0000.0,0004.82,0003.00,0002.68
2022-05-21 09:01:00,,0828.4,5.00,0.00,22.8,21.8,00.0,31.7,24.7,19.5,0000.0,0004.64,0002.98,0002.68
2022-05-21 09:02:00,,0828.5,5.00,0.00,22.8,21.7,00.0,31.7,24.6,19.5,0000.0,0004.61,0002.95,0002.66
2022-05-21 09:03:00,,0828.5,5.00,0.00,22.7,21.7,00.0,31.7,24.6,19.6,0000.0,0004.61,0002.92,0002.66
2022-05-21 09:04:00,,0828.5,4.99,0.00,22.7,21.7,00.0,31.7,24.6,19.6,0000.0,0004.72,0002.94,0002.66
2022-05-21 09:05:00,,0828.5,5.01,0.00,22.7,21.7,00.0,31.7,24.6,19.6,0000.0,0004.73,0002.95,0002.66
2022-05-21 09:06:00,,0828.6,5.00,0.00,22.7,21.7,00.0,31.7,24.6,19.6,0000.0,0004.81,0002.97,0002.66
2022-05-21 09:07:00,,0829.0,5.00,0.00,22.7,21.6,00.0,31.7,24.5,19.6,0000.0,0004.81,0002.94,0002.65
2022-05-21 09:08:00,,0828.9,5.00,0.00,22.7,21.6,00.0,31.7,24.5,19.6,0000.0,0004.86,0002.95,0002.66
2022-05-21 09:09:00,,0828.8,5.00,0.00,22.6,21.6,00.0,31.7,24.4,19.7,0000.0,0004.68,0002.93,0002.67
2022-05-21 09:10:00,,0828.9,5.00,0.00,22.6,21.5,00.0,31.7,24.4,19.7,0000.0,0004.03,0002.92,0002.67
2022-05-21 09:11:00,,0828.6,4.99,0.00,22.6,21.5,00.0,31.6,24.4,20.2,0000.0,0003.78,0002.97,0002.68
2022-05-21 09:12:00,,0828.7,5.01,0.00,22.6,21.4,00.0,31.6,24.4,22.3,0000.0,0003.92,0003.01,0002.68
2022-05-21 09:13:00,,0829.0,5.01,0.00,22.5,21.4,00.0,31.6,24.3,22.5,0000.0,0004.01,0003.04,0002.70
2022-05-21 09:14:00,,0828.9,5.00,0.00,22.5,21.4,00.0,31.6,24.3,20.7,0000.0,0004.06,0003.07,0002.71
2022-05-21 09:15:00,,0829.0,5.01,0.00,22.5,21.4,00.0,31.6,24.3,20.2,0000.0,0003.99,0003.04,0002.71
2022-05-21 09:16:00,,0829.1,5.01,0.00,22.5,21.4,00.0,31.6,24.3,20.1,0000.0,0003.98,0003.05,0002.72
2022-05-21 09:17:00,,0829.1,4.99,0.00,22.5,21.4,00.0,31.6,24.3,20.1,0000.0,0003.89,0003.02,0002.74
2022-05-21 09:18:00,,0829.0,5.00,0.00,22.5,21.4,00.0,31.6,24.3,20.0,0000.0,0003.80,0003.02,0002.75
2022-05-21 09:19:00,,0829.1,5.01,0.00,22.5,21.4,00.0,31.5,24.3,20.0,0000.0,0003.83,0003.07,0002.78
2022-05-21 09:20:00,,0828.8,5.00,0.00,22.5,21.4,00.0,31.5,24.3,19.9,0000.0,0003.92,0003.11,0002.78
2022-05-21 09:21:00,,0828.6,5.00,0.00,22.5,21.4,00.0,31.5,24.3,19.9,0000.0,0003.84,0003.11,0002.80
2022-05-21 09:22:00,,0828.7,5.01,0.00,22.5,21.5,00.0,31.5,24.4,19.9,0000.0,0003.76,0003.10,0002.82
2022-05-21 09:23:00,,0829.2,5.00,0.00,22.6,21.7,00.0,31.5,24.6,19.8,0000.0,0003.74,0003.10,0002.84
2022-05-21 09:24:00,,0828.9,5.00,0.00,22.7,22.2,00.0,31.5,24.8,19.7,0000.0,0003.71,0003.11,0002.84
2022-05-21 09:25:00,,0828.7,5.00,0.00,22.8,22.4,00.0,31.5,24.9,19.6,0000.0,0003.73,0003.12,0002.85
2022-05-21 09:26:00,,0828.7,5.00,0.00,22.8,22.4,00.0,31.6,24.9,19.6,0000.0,0004.91,0003.14,0002.87
2022-05-21 09:27:00,,0828.9,4.99,0.00,22.8,22.4,00.0,31.6,24.8,19.6,0000.0,0005.25,0003.15,0002.87
2022-05-21 09:28:00,,0828.7,5.01,0.00,22.8,22.3,00.0,31.6,24.8,19.7,0000.0,0005.23,0003.16,0002.89
2022-05-21 09:29:00,,0829.0,4.99,0.00,22.8,22.2,00.0,31.7,24.8,19.7,0000.0,0005.30,0003.18,0002.92
2022-05-21 09:30:00,,0829.0,5.01,0.00,22.8,22.2,00.0,31.7,24.8,19.7,0000.0,0005.38,0003.19,0002.94
2022-05-21 09:31:00,,0828.8,5.00,0.00,22.8,22.1,00.0,31.7,24.8,19.7,0000.0,0005.42,0003.21,0002.97
2022-05-21 09:32:00,,0829.0,5.01,0.00,22.8,22.1,00.0,31.7,24.7,19.7,0000.0,0005.45,0003.23,0003.01
2022-05-21 09:33:00,,0829.0,5.00,0.00,22.8,22.0,00.0,31.7,24.7,19.7,0000.0,0005.57,0003.26,0003.05
2022-05-21 09:34:00,,0828.6,5.00,0.00,22.8,22.0,00.0,31.7,24.7,19.7,0000.0,0005.66,0003.29,0003.10
2022-05-21 09:35:00,,0828.5,4.99,0.00,22.8,21.9,00.0,31.7,24.7,19.7,0000.0,0005.70,0003.31,0003.13
2022-05-21 09:36:00,,0828.9,5.00,0.00,22.8,21.9,00.0,31.7,24.7,19.7,0000.0,0005.70,0003.33,0003.16
2022-05-21 09:37:00,,0828.9,5.01,0.00,22.8,21.9,00.0,31.7,24.7,19.7,0000.0,0005.37,0003.36,0003.19
2022-05-21 09:38:00,,0829.0,5.00,0.00,22.8,21.9,00.0,31.7,24.7,19.7,0000.0,0004.45,0003.41,0003.22
2022-05-21 09:39:00,,0828.8,4.99,0.00,22.8,21.9,00.0,31.7,24.7,19.7,0000.0,0004.50,0003.43,0003.25
2022-05-21 09:40:00,,0829.0,5.00,0.00,22.7,21.8,00.0,31.7,24.6,19.7,0000.0,0004.62,0003.47,0003.28
2022-05-21 09:41:00,,0829.1,5.00,0.00,22.7,21.8,00.0,31.7,24.6,19.7,0000.0,0004.62,0003.50,0003.31
2022-05-21 09:42:00,,0829.1,5.00,0.00,22.7,21.8,00.0,31.7,24.6,19.7,0000.0,0004.67,0003.54,0003.33
2022-05-21 09:43:00,,0829.1,5.00,0.00,22.7,21.8,00.0,31.7,24.6,19.7,0000.0,0004.75,0003.56,0003.35
2022-05-21 09:44:00,,0828.7,5.00,0.00,22.7,21.7,00.0,31.7,24.5,19.7,0000.0,0004.78,0003.58,0003.37
2022-05-21 09:45:00,,0828.9,5.00,0.00,22.7,21.7,00.0,31.7,24.5,19.6,0000.0,0004.66,0003.57,0003.38
2022-05-21 09:46:00,,0828.9,5.00,0.00,22.7,21.7,00.0,31.7,24.5,19.6,0000.0,0004.66,0003.57,0003.38
2022-05-21 09:47:00,,0829.1,5.00,0.00,22.7,21.7,00.0,31.7,24.5,19.7,0000.0,0004.67,0003.58,0003.39
2022-05-21 09:48:00,,0829.2,4.99,0.00,22.7,21.7,00.0,31.7,24.5,19.7,0000.0,0004.66,0003.60,0003.41
2022-05-21 09:49:00,,0828.9,5.00,0.00,22.7,21.6,00.0,31.7,24.5,19.6,0000.0,0004.63,0003.62,0003.42
2022-05-21 09:50:00,,0829.0,4.99,0.00,22.7,21.7,00.0,31.7,24.5,19.6,0000.0,0004.59,0003.61,0003.42
2022-05-21 09:51:00,,0828.9,5.00,0.00,22.7,21.7,00.0,31.6,24.5,19.6,0000.0,0004.52,0003.60,0003.41
2022-05-21 09:52:00,,0828.7,5.01,0.00,22.7,21.7,00.0,31.6,24.5,19.6,0000.0,0004.61,0003.61,0003.40
2022-05-21 09:53:00,,0828.6,5.00,0.00,22.7,21.7,00.0,31.6,24.6,19.6,0000.0,0004.51,0003.58,0003.39
2022-05-21 09:54:00,,0828.7,4.99,0.00,22.7,21.7,00.0,31.6,24.6,19.5,0000.0,0004.37,0003.55,0003.37
2022-05-21 09:55:00,,0828.9,5.00,0.00,22.7,21.7,00.0,31.6,24.6,19.5,0000.0,0004.32,0003.53,0003.36
2022-05-21 09:56:00,,0829.0,4.99,0.00,22.7,21.7,00.0,31.6,24.6,19.4,0000.0,0004.33,0003.53,0003.35
2022-05-21 09:57:00,,0828.9,5.00,0.00,22.7,21.7,00.0,31.6,24.6,19.4,0000.0,0004.33,0003.54,0003.35
2022-05-21 09:58:00,,0828.7,4.99,0.00,22.7,21.7,00.0,31.6,24.6,19.3,0000.0,0004.27,0003.52,0003.35
2022-05-21 09:59:00,,0829.3,4.99,0.00,22.7,21.7,00.0,31.6,24.6,19.3,0000.0,0004.16,0003.50,0003.34
